Location: Darmstadt
(49.8706°N, 8.6494°E)
Time: 07:30:23
(UTC+01:00)

Lacrosse 5 - Pass Details

Date: 31 October 2020
Orbit: 714 x 725 km, 57.0° (Epoch: 30 November)

Event Time Altitude Azimuth Distance (km) Brightness Sun altitude
Rises 20:51:59 0° 302° (WNW) 3,121 6.1 -36.7°
Reaches altitude 10° 20:54:24 10° 298° (WNW) 2,199 5.1 -37.1°
Enters shadow 20:56:15 22° 289° (WNW) 1,543 4.1 -37.4°
